This is the latest recevied weather packets stored in our database for station/object KK7ISX. If no packets are shown the sender has not sent any weather packets the latest 10 day(s).
| Time | Temp. | Humidity | Pressure | Rain* | Wind** | Luminosity | Snow |
|---|---|---|---|---|---|---|---|
| 1777750685 | 24.44° C | 32% | 1015.4 hPa | 0 mm | - | 775 W/m² | - |
| 1777750383 | 24.44° C | 32% | 1015.6 hPa | 0 mm | - | 467 W/m² | - |
| 1777750078 | 23.89° C | 32% | 1015.8 hPa | 0 mm | - | 604 W/m² | - |
| 1777749776 | 23.89° C | 35% | 1015.9 hPa | 0 mm | - | 874 W/m² | - |
| 1777749472 | 23.89° C | 32% | 1016 hPa | 0 mm | - | 370 W/m² | - |
| 1777749170 | 23.89° C | 32% | 1016.1 hPa | 0 mm | - | 337 W/m² | - |
| 1777748867 | 23.89° C | 33% | 1016 hPa | 0 mm | - | 667 W/m² | - |
| 1777748564 | 23.33° C | 33% | 1016 hPa | 0 mm | - | 384 W/m² | - |
| 1777748259 | 23.89° C | 33% | 1016.1 hPa | 0 mm | - | 729 W/m² | - |
| 1777747956 | 23.33° C | 34% | 1016.2 hPa | 0 mm | - | 782 W/m² | - |
| 1777747652 | 22.78° C | 35% | 1016.2 hPa | 0 mm | - | 721 W/m² | - |
| 1777747348 | 22.78° C | 36% | 1016.5 hPa | 0 mm | - | 676 W/m² | - |
| 1777747045 | 22.22° C | 35% | 1016.6 hPa | 0 mm | - | 716 W/m² | - |
| 1777746741 | 22.22° C | 35% | 1016.5 hPa | 0 mm | - | 501 W/m² | - |
| 1777746436 | 22.22° C | 37% | 1016.8 hPa | 0 mm | - | 647 W/m² | - |
| 1777746131 | 22.78° C | 36% | 1016.9 hPa | 0 mm | - | 569 W/m² | - |
| 1777745828 | 22.22° C | 37% | 1016.9 hPa | 0 mm | - | 720 W/m² | - |
| 1777745523 | 22.22° C | 37% | 1016.8 hPa | 0 mm | - | 751 W/m² | - |
| 1777745219 | 21.67° C | 38% | 1016.9 hPa | 0 mm | - | 704 W/m² | - |
| 1777744916 | 21.67° C | 39% | 1016.9 hPa | 0 mm | - | 711 W/m² | - |
| 1777744615 | 22.22° C | 37% | 1017 hPa | 0 mm | - | 717 W/m² | - |
| 1777744311 | 22.22° C | 39% | 1017.1 hPa | 0 mm | - | 704 W/m² | - |
| 1777744008 | 22.22° C | 36% | 1017 hPa | 0 mm | - | 714 W/m² | - |
| 1777743704 | 20.56° C | 40% | 1017 hPa | 0 mm | - | 712 W/m² | - |
| 1777743402 | 20° C | 40% | 1017.3 hPa | 0 mm | - | 678 W/m² | - |
* Rain latest hour (hover to see other rain measurements)
** Current wind speed in m/s (hover to see current wind gust speed)